Location: Poughquag
(41.6090°N, 73.6820°W)
Time: 03:31:47
(UTC-04:00)

Transit 2A Rocket - Pass Details

Date: 04 June 2020
Orbit: 584 x 919 km, 66.7° (Epoch: 06 July)

Event Time Altitude Azimuth Distance (km) Brightness Sun altitude
Rises 23:42:22 0° 262° (W) 3,154 8.3 -23.7°
Reaches altitude 10° 23:45:33 10° 284° (WNW) 2,306 7.8 -23.9°
Maximum altitude 23:48:51 16° 322° (NW) 1,966 7.9 -24.1°
Drops below altitude 10° 23:52:20 10° 1° (N) 2,451 8.6 -24.3°
Sets 23:55:54 0° 21° (NNE) 3,452 9.2 -24.4°
